Weather reports worldwide

Advertisment
AWG, Netherlands (6208): temperature & dewpoint: 22.05.2020 23:00:00 - 28.05.2020 23:00:00 (CEST)AWG, Netherlands (6208): wind speed & gusts: 22.05.2020 23:00:00 - 28.05.2020 23:00:00 (CEST)AWG, Netherlands (6208): wind direction: 22.05.2020 23:00:00 - 28.05.2020 23:00:00 (CEST)AWG, Netherlands (6208): reduced air pressure: 22.05.2020 23:00:00 - 28.05.2020 23:00:00 (CEST)AWG, Netherlands (6208): visibility: 22.05.2020 23:00:00 - 28.05.2020 23:00:00 (CEST)
Date & Time tt [°C] td [°C] ff [km/h] ff [kn] fx [km/h] fx [kn] dd ppp [hPa] vv [km]
28.05.2020 23:00:00 11,3 6,4 16 9 18 10 NNE 1033,4 10
28.05.2020 22:00:00 11,3 6,7 18 10 22 12 NNE 1033,7 10
28.05.2020 21:00:00 11,3 7,0 18 10 25 14 NNE 1033,5 10
28.05.2020 20:00:00 11,3 7,2 21 11 25 14 - 1033,8 10
28.05.2020 19:00:00 11,2 7,0 22 12 29 16 NNE 1034,3 10
28.05.2020 18:00:00 11,4 7,1 26 14 29 16 NNE 1034,6 10
28.05.2020 17:00:00 11,5 5,5 22 12 29 16 N 1035,0 25
28.05.2020 16:00:00 11,4 5,7 24 13 25 14 N 1035,3 10
28.05.2020 15:00:00 11,5 5,8 18 10 22 12 N 1035,6 24
28.05.2020 14:00:00 11,4 6,1 21 11 22 12 N 1035,8 10
28.05.2020 13:00:00 11,3 7,1 18 10 22 12 N 1036,2 10
28.05.2020 12:00:00 11,3 7,1 21 11 22 12 N 1036,4 10
28.05.2020 11:00:00 11,3 7,2 18 10 22 12 N 1036,3 10
28.05.2020 10:00:00 11,1 8,1 21 11 25 14 N 1036,5 10
28.05.2020 09:00:00 11,2 8,0 21 11 25 14 N 1036,6 10
28.05.2020 08:00:00 11,3 7,9 22 12 25 14 N 1036,5 10
28.05.2020 07:00:00 11,3 8,1 24 13 29 16 N 1036,5 10
28.05.2020 06:00:00 11,4 8,3 28 15 29 16 NNE 1036,6 10
28.05.2020 05:00:00 11,4 8,1 22 12 29 16 - 1036,4 10
28.05.2020 04:00:00 11,5 7,9 28 15 29 16 NNE 1036,4 10
28.05.2020 03:00:00 11,6 8,4 28 15 29 16 NNE 1036,7 10
28.05.2020 02:00:00 11,7 7,9 24 13 25 14 NNE 1036,9 10
28.05.2020 01:00:00 12,0 6,8 21 11 22 12 NNE 1036,8 10
28.05.2020 00:00:00 12,2 7,0 26 14 32 18 NNE 1036,6 10
27.05.2020 23:00:00 12,0 6,7 28 15 36 19 NNE 1036,7 10
27.05.2020 22:00:00 12,3 7,7 28 15 32 18 - 1036,4 10
27.05.2020 21:00:00 12,2 7,5 24 13 29 16 NNE 1036,0 10
27.05.2020 20:00:00 12,3 7,7 24 13 25 14 NE 1035,7 10
27.05.2020 19:00:00 12,1 7,3 28 15 25 14 NNE 1035,8 10
27.05.2020 18:00:00 12,1 7,4 26 14 25 14 NNE 1036,0 10
27.05.2020 17:00:00 12,1 7,7 24 13 25 14 NNE 1036,0 10
27.05.2020 16:00:00 11,7 9,6 22 12 25 14 NNE 1035,8 10
27.05.2020 15:00:00 11,4 10,7 21 11 22 12 NNE 1035,7 10
27.05.2020 14:00:00 10,9 10,9 21 11 25 14 NNE 1035,9 3,8
27.05.2020 13:00:00 10,6 10,6 18 10 22 12 N 1035,8 1,5
27.05.2020 12:00:00 10,5 10,5 15 8 22 12 N 1035,8 0,5
27.05.2020 11:00:00 10,5 10,5 21 11 25 14 N 1035,6 4,6
27.05.2020 10:00:00 11,2 10,9 21 11 29 16 N 1035,1 10
27.05.2020 09:00:00 11,0 10,8 26 14 29 16 N 1035,0 10
27.05.2020 08:00:00 11,4 11,4 29 16 32 18 N 1034,8 8
27.05.2020 07:00:00 10,4 10,4 28 15 29 16 N 1034,9 1,9
27.05.2020 06:00:00 10,3 10,3 16 9 18 10 N 1034,7 0,1
27.05.2020 05:00:00 11,5 11,4 16 9 22 12 N 1034,7 0,8
27.05.2020 04:00:00 11,9 11,8 18 10 18 10 N 1034,9 1,2
27.05.2020 03:00:00 12,8 11,6 21 11 22 12 N 1034,7 10
27.05.2020 02:00:00 13,0 11,7 18 10 18 10 N 1034,8 10
27.05.2020 01:00:00 13,5 12,3 4 2 7 4 NNE 1035,0 10
27.05.2020 00:00:00 14,4 12,3 8 4 14 8 ESE 1035,1 10
26.05.2020 23:00:00 15,0 12,5 9 5 14 8 SE 1035,3 10
26.05.2020 22:00:00 15,2 11,8 8 4 14 8 E 1035,2 10
26.05.2020 21:00:00 15,9 11,3 11 6 18 10 E 1034,9 10
26.05.2020 20:00:00 15,8 11,3 11 6 14 8 - 1034,9 10
26.05.2020 19:00:00 15,1 11,7 11 6 14 8 - 1035,2 10
26.05.2020 18:00:00 14,6 12,3 11 6 11 6 NE 1035,3 10
26.05.2020 17:00:00 14,5 11,9 11 6 18 10 NE 1035,5 27
26.05.2020 16:00:00 14,6 11,5 13 7 18 10 - 1035,7 10
26.05.2020 15:00:00 14,6 11,4 15 8 18 10 E 1035,8 10
26.05.2020 14:00:00 14,7 11,3 15 8 18 10 E 1036,0 10
26.05.2020 13:00:00 16,5 10,6 15 8 18 10 E 1036,3 10
26.05.2020 12:00:00 15,1 11,0 11 6 14 8 E 1036,5 17
26.05.2020 11:00:00 13,5 10,4 13 7 14 8 ESE 1036,4 10
26.05.2020 10:00:00 12,5 9,9 13 7 14 8 SE 1036,5 10
26.05.2020 09:00:00 12,0 10,0 15 8 18 10 SE 1036,3 10
26.05.2020 08:00:00 11,4 10,3 15 8 14 8 SE 1036,1 10
26.05.2020 07:00:00 11,4 10,4 11 6 14 8 SE 1035,9 10
26.05.2020 06:00:00 11,8 10,3 9 5 11 6 S 1035,8 10
26.05.2020 05:00:00 11,9 9,5 4 2 7 4 - 1035,5 10
26.05.2020 04:00:00 11,8 9,3 4 2 7 4 N 1035,6 10
26.05.2020 03:00:00 11,9 9,5 5 3 11 6 NE 1035,6 10
26.05.2020 02:00:00 11,9 9,2 2 1 4 2 N 1035,6 10
26.05.2020 01:00:00 11,9 9,4 2 1 7 4 - 1035,5 10
26.05.2020 00:00:00 11,9 9,6 5 3 7 4 NE 1035,6 10
25.05.2020 23:00:00 11,9 9,2 8 4 7 4 N 1035,3 10
25.05.2020 22:00:00 11,8 9,1 9 5 11 6 N 1035,4 10
25.05.2020 21:00:00 11,8 9,5 11 6 14 8 N 1035,3 10
25.05.2020 20:00:00 11,8 9,6 13 7 14 8 N 1035,1 10
25.05.2020 19:00:00 11,9 9,5 16 9 18 10 N 1035,1 10
25.05.2020 18:00:00 11,8 9,9 16 9 22 12 NNW 1034,9 10
25.05.2020 17:00:00 11,7 10,0 18 10 22 12 NW 1035,0 24
25.05.2020 16:00:00 11,7 9,7 21 11 22 12 NW 1034,8 10
25.05.2020 15:00:00 11,5 9,3 21 11 25 14 NNW 1034,8 10
25.05.2020 14:00:00 11,5 9,2 24 13 25 14 NW 1034,4 10
25.05.2020 13:00:00 11,5 9,3 26 14 25 14 NW 1034,3 10
25.05.2020 12:00:00 11,5 9,4 24 13 25 14 NW 1033,8 10
25.05.2020 11:00:00 11,7 9,8 22 12 25 14 NW 1033,4 10
25.05.2020 10:00:00 11,7 9,9 31 17 32 18 NNW 1033,1 10
25.05.2020 09:00:00 11,9 9,5 25 14 36 19 NNW 1032,7 13
25.05.2020 08:00:00 12,0 10,3 35 19 36 19 NNW 1032,1 10
25.05.2020 07:00:00 12,0 10,5 35 19 36 19 NW 1031,6 10
25.05.2020 06:00:00 12,2 10,9 37 20 36 19 WNW 1030,8 10
25.05.2020 05:00:00 12,3 10,5 35 19 36 19 WNW 1030,3 10
25.05.2020 04:00:00 12,1 10,7 39 21 43 23 NW 1029,8 10
25.05.2020 03:00:00 12,2 10,9 37 20 40 21 NW 1029,5 10
25.05.2020 02:00:00 12,5 10,9 41 22 43 23 WNW 1029,3 10
25.05.2020 01:00:00 12,6 11,1 37 20 43 23 WNW 1028,9 10
25.05.2020 00:00:00 12,8 11,0 41 22 43 23 WNW 1028,5 10
24.05.2020 23:00:00 12,8 11,0 37 20 43 23 WNW 1028,4 10
24.05.2020 22:00:00 13,0 11,0 39 21 43 23 WNW 1028,1 10
24.05.2020 21:00:00 12,9 10,8 34 18 47 25 W 1027,7 10
24.05.2020 20:00:00 13,1 10,8 39 21 43 23 WNW 1027,5 10
24.05.2020 19:00:00 13,0 10,7 37 20 43 23 WNW 1026,8 10
24.05.2020 18:00:00 13,3 10,8 39 21 47 25 WNW 1026,6 10
24.05.2020 17:00:00 13,3 11,1 37 20 40 21 WNW 1026,2 10
24.05.2020 16:00:00 13,3 11,0 35 19 40 21 WNW 1025,7 10
24.05.2020 15:00:00 13,3 11,3 41 22 40 21 WNW 1025,2 10
24.05.2020 14:00:00 13,1 11,3 32 18 43 23 W 1024,7 18
24.05.2020 13:00:00 12,8 11,0 41 22 43 23 W 1024,1 10
24.05.2020 12:00:00 12,8 10,5 41 22 43 23 W 1023,8 10
24.05.2020 11:00:00 12,0 10,6 44 24 43 23 W 1023,9 8
24.05.2020 10:00:00 12,7 9,5 44 24 43 23 W 1023,4 10
24.05.2020 09:00:00 13,1 9,0 44 24 47 25 W 1023,1 10
24.05.2020 08:00:00 12,9 8,7 44 24 47 25 W 1022,8 10
24.05.2020 07:00:00 13,0 8,2 48 26 47 25 W 1022,0 10
24.05.2020 06:00:00 13,1 8,6 42 23 47 25 W 1021,8 10
24.05.2020 05:00:00 13,3 7,8 46 25 47 25 W 1021,3 10
24.05.2020 04:00:00 13,5 8,4 41 22 43 23 W 1021,1 10
24.05.2020 03:00:00 13,7 8,4 31 17 43 23 W 1021,5 10
24.05.2020 02:00:00 13,9 7,9 34 18 40 21 W 1021,1 10
24.05.2020 01:00:00 14,0 8,4 29 16 40 21 W 1021,1 10
24.05.2020 00:00:00 14,4 9,2 39 21 43 23 WSW 1021,1 10
23.05.2020 23:00:00 14,3 9,4 36 19 43 23 WSW 1021,0 21
23.05.2020 22:00:00 14,2 8,8 50 27 50 27 WSW 1020,7 10
23.05.2020 21:00:00 14,6 8,7 42 23 47 25 WSW 1020,5 10
23.05.2020 20:00:00 15,0 7,2 40 21 47 25 WSW 1020,3 18
23.05.2020 19:00:00 15,0 8,9 40 21 54 29 WSW 1020,1 13
23.05.2020 18:00:00 15,3 8,2 50 27 50 27 WSW 1019,9 10
23.05.2020 17:00:00 15,0 6,5 50 27 50 27 WSW 1019,7 10
23.05.2020 16:00:00 14,7 6,7 44 24 47 25 WSW 1019,4 10
23.05.2020 15:00:00 14,0 7,6 46 25 47 25 WSW 1019,0 10
23.05.2020 14:00:00 13,8 8,6 46 25 47 25 WSW 1019,1 10
23.05.2020 13:00:00 13,8 8,1 46 25 47 25 WSW 1018,9 10
23.05.2020 12:00:00 13,6 7,4 42 23 43 23 WSW 1018,7 10
23.05.2020 11:00:00 13,5 7,0 39 21 40 21 WSW 1018,8 10
23.05.2020 10:00:00 13,3 7,3 35 19 40 21 W 1018,6 10
23.05.2020 09:00:00 13,5 7,1 32 18 40 21 W 1018,4 18
23.05.2020 08:00:00 13,7 7,8 29 16 32 18 WSW 1018,0 10
23.05.2020 07:00:00 13,9 7,4 25 14 32 18 W 1017,8 15
23.05.2020 06:00:00 14,1 6,8 26 14 29 16 WSW 1017,6 10
23.05.2020 05:00:00 14,5 7,1 29 16 32 18 WSW 1017,4 10
23.05.2020 04:00:00 15,1 7,8 28 15 32 18 WSW 1017,2 10
23.05.2020 03:00:00 14,9 11,6 28 15 29 16 SW 1017,0 9
23.05.2020 02:00:00 14,9 11,9 28 15 29 16 SW 1017,0 9
23.05.2020 01:00:00 15,0 11,5 24 13 29 16 SW 1016,7 10
23.05.2020 00:00:00 15,3 11,1 29 16 32 18 SW 1016,7 10
22.05.2020 23:00:00 15,7 11,0 34 18 36 19 SW 1016,6 10

tt = temperature
td = dewpoint
ff = wind speed
fx = gusts
dd = wind direction
ppp = reduced air pressure
vv = visibility

Next stations